N28ZA KLAX-KSAN

Flight info

Callsign N28ZA
Flight time 0h 33m
Altitude 13000
Route KLAX LAXX1 MZB KSAN
Aircraft C510/L-G/S

Departure

Time 2026-04-21 03:03
Airport Los Angeles International Airport (KLAX)

Arrival

Time 2026-04-21 03:36
Airport San Diego International Airport (KSAN)
Time Latitude Longitude Altitude Speed Heading
2026-04-21 02:53 33.93376 -118.39426 105 ft 0 kts 89°
2026-04-21 02:58 33.93377 -118.39419 105 ft 5 kts 79°
2026-04-21 02:58 33.93423 -118.39394 104 ft 7 kts
2026-04-21 02:59 33.93483 -118.39390 104 ft 11 kts 25°
2026-04-21 02:59 33.93510 -118.39286 103 ft 14 kts 83°
2026-04-21 02:59 33.93523 -118.39161 103 ft 15 kts 83°
2026-04-21 02:59 33.93537 -118.39025 103 ft 16 kts 82°
2026-04-21 03:00 33.93552 -118.38874 100 ft 19 kts 82°
2026-04-21 03:00 33.93570 -118.38708 100 ft 18 kts 83°
2026-04-21 03:00 33.93584 -118.38561 100 ft 15 kts 83°
2026-04-21 03:00 33.93597 -118.38438 99 ft 14 kts 84°
2026-04-21 03:01 33.93610 -118.38322 97 ft 12 kts 71°
2026-04-21 03:01 33.93641 -118.38286 96 ft 0 kts 16°
2026-04-21 03:02 33.93684 -118.38287 97 ft 13 kts 353°
2026-04-21 03:02 33.93727 -118.38371 97 ft 13 kts 263°
2026-04-21 03:02 33.93682 -118.38805 100 ft 89 kts 264°
2026-04-21 03:02 33.93602 -118.39728 289 ft 114 kts 265°
2026-04-21 03:03 33.93581 -118.40751 745 ft 135 kts 263°
2026-04-21 03:03 33.93463 -118.42012 1322 ft 164 kts 263°
2026-04-21 03:03 33.93312 -118.43564 1921 ft 192 kts 263°
2026-04-21 03:03 33.93144 -118.45255 2465 ft 194 kts 261°
2026-04-21 03:04 33.92596 -118.46694 2959 ft 196 kts 233°
2026-04-21 03:04 33.91740 -118.48000 3467 ft 200 kts 229°
2026-04-21 03:04 33.90526 -118.48888 3991 ft 209 kts 201°
2026-04-21 03:04 33.89157 -118.49521 4508 ft 220 kts 202°
2026-04-21 03:05 33.87618 -118.50244 5054 ft 230 kts 201°
2026-04-21 03:05 33.86106 -118.50953 5565 ft 237 kts 201°
2026-04-21 03:05 33.84619 -118.51656 6051 ft 237 kts 201°
2026-04-21 03:05 33.82990 -118.52428 6576 ft 234 kts 201°
2026-04-21 03:06 33.81391 -118.53190 7096 ft 232 kts 201°
2026-04-21 03:06 33.79795 -118.53952 7619 ft 230 kts 202°
2026-04-21 03:06 33.78243 -118.54696 8136 ft 228 kts 202°
2026-04-21 03:06 33.76664 -118.55452 8659 ft 225 kts 202°
2026-04-21 03:07 33.75100 -118.56201 9183 ft 223 kts 201°
2026-04-21 03:07 33.73548 -118.56947 9706 ft 225 kts 201°
2026-04-21 03:07 33.71976 -118.57708 10241 ft 230 kts 202°
2026-04-21 03:07 33.70369 -118.58485 10779 ft 237 kts 202°
2026-04-21 03:08 33.68712 -118.59279 11313 ft 242 kts 201°
2026-04-21 03:08 33.66985 -118.59563 11799 ft 246 kts 169°
2026-04-21 03:08 33.65530 -118.58400 12312 ft 255 kts 130°
2026-04-21 03:08 33.64919 -118.56287 12845 ft 272 kts 102°
2026-04-21 03:09 33.64642 -118.53877 12988 ft 287 kts 103°
2026-04-21 03:09 33.64381 -118.51594 12988 ft 289 kts 102°
2026-04-21 03:09 33.63950 -118.49345 12969 ft 283 kts 120°
2026-04-21 03:09 33.62883 -118.47235 12996 ft 277 kts 123°
2026-04-21 03:10 33.61898 -118.45193 12989 ft 274 kts 127°
2026-04-21 03:10 33.60804 -118.43062 12984 ft 273 kts 125°
2026-04-21 03:10 33.59798 -118.41103 12989 ft 271 kts 126°
2026-04-21 03:10 33.58804 -118.39145 12989 ft 271 kts 126°
2026-04-21 03:11 33.57776 -118.37144 12991 ft 270 kts 126°
2026-04-21 03:11 33.56753 -118.35143 12994 ft 269 kts 126°
2026-04-21 03:11 33.55737 -118.33164 12994 ft 269 kts 126°
2026-04-21 03:11 33.54749 -118.31235 12995 ft 269 kts 126°
2026-04-21 03:12 33.53749 -118.29288 12992 ft 269 kts 126°
2026-04-21 03:12 33.52724 -118.27286 12990 ft 268 kts 126°
2026-04-21 03:12 33.51724 -118.25339 12994 ft 268 kts 126°
2026-04-21 03:12 33.50727 -118.23397 12993 ft 268 kts 126°
2026-04-21 03:13 33.49725 -118.21448 12988 ft 268 kts 126°
2026-04-21 03:13 33.48723 -118.19497 12985 ft 268 kts 126°
2026-04-21 03:13 33.47698 -118.17509 12980 ft 268 kts 126°
2026-04-21 03:13 33.46688 -118.15543 12984 ft 268 kts 126°
2026-04-21 03:14 33.45652 -118.13534 12982 ft 268 kts 126°
2026-04-21 03:14 33.44650 -118.11591 12981 ft 268 kts 126°
2026-04-21 03:14 33.43617 -118.09589 12981 ft 269 kts 126°
2026-04-21 03:14 33.42570 -118.07555 12975 ft 269 kts 126°
2026-04-21 03:15 33.41577 -118.05634 12971 ft 269 kts 126°
2026-04-21 03:15 33.40559 -118.03663 12964 ft 269 kts 126°
2026-04-21 03:15 33.39526 -118.01665 12964 ft 269 kts 126°
2026-04-21 03:15 33.38536 -117.99749 12969 ft 269 kts 126°
2026-04-21 03:16 33.37517 -117.97777 12960 ft 269 kts 126°
2026-04-21 03:16 33.36509 -117.95829 12960 ft 269 kts 126°
2026-04-21 03:16 33.35485 -117.93843 12953 ft 269 kts 125°
2026-04-21 03:16 33.34469 -117.91922 12948 ft 269 kts 126°
2026-04-21 03:17 33.33481 -117.89982 12949 ft 270 kts 125°
2026-04-21 03:17 33.32470 -117.88113 13093 ft 263 kts 129°
2026-04-21 03:17 33.31411 -117.86218 12947 ft 271 kts 125°
2026-04-21 03:17 33.30405 -117.84150 12967 ft 270 kts 124°
2026-04-21 03:18 33.29402 -117.82179 12972 ft 270 kts 125°
2026-04-21 03:18 33.28479 -117.80369 12977 ft 270 kts 126°
2026-04-21 03:18 33.27475 -117.78429 12978 ft 270 kts 125°
2026-04-21 03:18 33.26479 -117.76506 12982 ft 270 kts 126°
2026-04-21 03:19 33.25512 -117.74651 12978 ft 270 kts 126°
2026-04-21 03:19 33.24550 -117.72800 12980 ft 270 kts 126°
2026-04-21 03:19 33.23536 -117.70854 12987 ft 271 kts 125°
2026-04-21 03:19 33.22488 -117.68842 12981 ft 271 kts 125°
2026-04-21 03:20 33.21385 -117.66724 12988 ft 271 kts 126°
2026-04-21 03:20 33.20352 -117.64747 12989 ft 272 kts 125°
2026-04-21 03:20 33.19338 -117.62803 12987 ft 272 kts 125°
2026-04-21 03:20 33.18314 -117.60837 12988 ft 273 kts 125°
2026-04-21 03:21 33.17170 -117.58941 12980 ft 270 kts 135°
2026-04-21 03:21 33.15919 -117.57258 12986 ft 268 kts 134°
2026-04-21 03:21 33.14670 -117.55553 12987 ft 265 kts 135°
2026-04-21 03:21 33.13479 -117.53944 12987 ft 263 kts 135°
2026-04-21 03:22 33.12397 -117.52490 12985 ft 261 kts 135°
2026-04-21 03:22 33.11189 -117.50861 12984 ft 260 kts 135°
2026-04-21 03:22 33.09933 -117.49178 12985 ft 260 kts 135°
2026-04-21 03:22 33.08670 -117.47484 12986 ft 259 kts 135°
2026-04-21 03:23 33.07412 -117.45795 12988 ft 259 kts 135°
2026-04-21 03:23 33.06167 -117.44129 12988 ft 259 kts 135°
2026-04-21 03:23 33.04885 -117.42417 12784 ft 267 kts 135°
2026-04-21 03:23 33.03642 -117.40749 12416 ft 262 kts 134°
2026-04-21 03:24 33.02387 -117.39070 12029 ft 257 kts 135°
2026-04-21 03:24 33.01176 -117.37450 11650 ft 254 kts 134°
2026-04-21 03:24 32.99966 -117.35838 11268 ft 251 kts 134°
2026-04-21 03:24 32.98768 -117.34232 10892 ft 248 kts 135°
2026-04-21 03:25 32.97578 -117.32642 10601 ft 241 kts 135°
2026-04-21 03:25 32.96417 -117.31092 10315 ft 237 kts 135°
2026-04-21 03:25 32.95280 -117.29577 10039 ft 232 kts 135°
2026-04-21 03:25 32.94184 -117.28114 9775 ft 229 kts 135°
2026-04-21 03:26 32.93088 -117.26653 9514 ft 226 kts 134°
2026-04-21 03:26 32.91991 -117.25192 9257 ft 223 kts 134°
2026-04-21 03:26 32.90965 -117.23824 9014 ft 221 kts 134°
2026-04-21 03:26 32.89904 -117.22414 8784 ft 227 kts 134°
2026-04-21 03:27 32.88770 -117.20905 8515 ft 234 kts 134°
2026-04-21 03:27 32.87725 -117.19515 8265 ft 235 kts 134°
2026-04-21 03:27 32.86604 -117.18020 7993 ft 235 kts 134°
2026-04-21 03:27 32.85489 -117.16539 7726 ft 235 kts 134°
2026-04-21 03:28 32.84384 -117.15069 7460 ft 235 kts 134°
2026-04-21 03:28 32.83254 -117.13572 7189 ft 234 kts 133°
2026-04-21 03:28 32.82148 -117.12101 6924 ft 234 kts 133°
2026-04-21 03:28 32.81039 -117.10626 6660 ft 234 kts 133°
2026-04-21 03:29 32.79932 -117.09161 6397 ft 233 kts 133°
2026-04-21 03:29 32.78826 -117.07693 6132 ft 232 kts 133°
2026-04-21 03:29 32.77884 -117.06291 6006 ft 230 kts 118°
2026-04-21 03:29 32.77408 -117.04427 6016 ft 229 kts 107°
2026-04-21 03:30 32.76933 -117.02561 5636 ft 230 kts 107°
2026-04-21 03:30 32.76498 -117.00734 5283 ft 227 kts 107°
2026-04-21 03:30 32.76052 -116.98915 5223 ft 231 kts 107°
2026-04-21 03:30 32.75483 -116.97087 5197 ft 233 kts 124°
2026-04-21 03:31 32.74220 -116.95800 4905 ft 234 kts 154°
2026-04-21 03:31 32.72851 -116.95312 4652 ft 228 kts 175°
2026-04-21 03:31 32.71273 -116.95531 4562 ft 219 kts 198°
2026-04-21 03:31 32.69916 -116.96479 4173 ft 224 kts 223°
2026-04-21 03:32 32.69010 -116.98025 3806 ft 223 kts 248°
2026-04-21 03:32 32.68729 -116.99778 3672 ft 205 kts 270°
2026-04-21 03:32 32.69013 -117.01480 3287 ft 202 kts 290°
2026-04-21 03:32 32.69459 -117.03052 3202 ft 185 kts 287°
2026-04-21 03:33 32.69832 -117.04523 3013 ft 178 kts 287°
2026-04-21 03:33 32.70190 -117.05949 2742 ft 175 kts 287°
2026-04-21 03:33 32.70542 -117.07383 2420 ft 170 kts 287°
2026-04-21 03:33 32.70868 -117.08710 2019 ft 158 kts 286°
2026-04-21 03:34 32.71170 -117.09953 1756 ft 144 kts 286°
2026-04-21 03:34 32.71455 -117.11127 1484 ft 141 kts 286°
2026-04-21 03:34 32.71733 -117.12274 1234 ft 137 kts 286°
2026-04-21 03:34 32.72007 -117.13400 997 ft 135 kts 286°
2026-04-21 03:35 32.72271 -117.14487 795 ft 132 kts 285°
2026-04-21 03:35 32.72524 -117.15585 594 ft 132 kts 285°
2026-04-21 03:35 32.72788 -117.16652 374 ft 131 kts 285°
2026-04-21 03:35 32.73035 -117.17661 97 ft 111 kts 285°
2026-04-21 03:36 32.73223 -117.18423 17 ft 67 kts 288°
2026-04-21 03:36 32.73333 -117.18803 19 ft 28 kts 322°
2026-04-21 03:36 32.73415 -117.18788 19 ft 0 kts 60°
2026-04-21 03:37 32.73416 -117.18786 19 ft 3 kts 64°
2026-04-21 03:37 32.73409 -117.18714 19 ft 8 kts 105°
2026-04-21 03:37 32.73392 -117.18645 19 ft 9 kts 106°
2026-04-21 03:38 32.73371 -117.18559 19 ft 11 kts 105°
2026-04-21 03:38 32.73345 -117.18452 19 ft 13 kts 106°
2026-04-21 03:38 32.73317 -117.18333 19 ft 15 kts 107°
2026-04-21 03:38 32.73285 -117.18205 18 ft 16 kts 106°
2026-04-21 03:39 32.73253 -117.18071 19 ft 15 kts 105°
2026-04-21 03:39 32.73275 -117.17979 19 ft 10 kts 20°
2026-04-21 03:39 32.73338 -117.17957 20 ft 11 kts 16°
2026-04-21 03:39 32.73376 -117.17908 22 ft 5 kts 59°
2026-04-21 03:40 32.73378 -117.17886 22 ft 3 kts 115°
2026-04-21 03:40 32.73358 -117.17878 22 ft 5 kts 186°
2026-04-21 03:40 32.73354 -117.17879 22 ft 0 kts 195°